Location: Pedholt
(56.0260°N, 10.2097°E)
Time: 06:17:47
(UTC+00:00)

Cosmos 1697 Rocket - Pass Details

Date: 14 July 2020
Orbit: 834 x 842 km, 71.0° (Epoch: 14 August)

Event Time Altitude Azimuth Distance (km) Brightness Sun altitude
Rises 00:22:31 0° 324° (NW) 3,402 6.5 -11.4°
Reaches altitude 10° 00:24:59 10° 327° (NNW) 2,463 5.8 -11.3°
Maximum altitude 00:30:38 72° 52° (NE) 882 3.0 -11.1°
Drops below altitude 10° 00:36:14 10° 137° (SE) 2,445 4.8 -10.9°
Sets 00:38:41 0° 140° (SE) 3,375 5.5 -10.8°
